Time,TemperatureF,DewpointF,PressureIn,WindDirection,WindDirectionDegrees,WindSpeedMPH,WindSpeedGustMPH,Humidity,HourlyPrecipIn,Conditions,Clouds,dailyrainin,SoftwareType,DateUTC
2013-07-24 00:02:00,61.7,61.1,29.83,West,270,0.0,-999.0,98,-99.99,,,0.00,Acu-Link.com,2013-07-24 07:02:00,
2013-07-24 00:17:00,61.7,61.1,29.83,ESE,112,0.0,-999.0,98,-99.99,,,0.00,Acu-Link.com,2013-07-24 07:17:00,
2013-07-24 00:32:00,61.5,60.9,29.83,East,90,0.0,-999.0,98,-99.99,,,0.00,Acu-Link.com,2013-07-24 07:32:00,
2013-07-24 00:47:00,61.3,60.7,29.82,West,270,0.0,-999.0,98,-99.99,,,0.00,Acu-Link.com,2013-07-24 07:47:00,
2013-07-24 01:02:00,61.3,60.7,29.83,West,270,0.0,-999.0,98,-99.99,,,0.00,Acu-Link.com,2013-07-24 08:02:00,
2013-07-24 01:18:00,61.3,60.7,29.84,West,270,0.0,-999.0,98,-99.99,,,0.00,Acu-Link.com,2013-07-24 08:18:00,
2013-07-24 01:33:00,61.5,60.9,29.83,West,270,0.0,-999.0,98,-99.99,,,0.00,Acu-Link.com,2013-07-24 08:33:00,
2013-07-24 01:48:00,61.2,60.6,29.83,NE,45,0.0,-999.0,98,-99.99,,,0.00,Acu-Link.com,2013-07-24 08:48:00,
2013-07-24 02:03:00,61.0,60.4,29.83,South,180,0.0,-999.0,98,-99.99,,,0.00,Acu-Link.com,2013-07-24 09:03:00,
2013-07-24 02:18:00,60.6,60.0,29.83,WNW,292,1.1,-999.0,98,-99.99,,,0.00,Acu-Link.com,2013-07-24 09:18:00,
2013-07-24 02:33:00,60.8,60.2,29.82,SSW,202,0.0,-999.0,98,-99.99,,,0.00,Acu-Link.com,2013-07-24 09:33:00,
2013-07-24 02:48:00,60.3,59.7,29.82,SSW,202,0.0,-999.0,98,-99.99,,,0.00,Acu-Link.com,2013-07-24 09:48:00,
2013-07-24 03:04:00,60.4,59.8,29.83,SSW,202,0.0,-999.0,98,-99.99,,,0.00,Acu-Link.com,2013-07-24 10:04:00,
2013-07-24 03:19:00,60.3,59.7,29.83,WSW,247,0.0,-999.0,98,-99.99,,,0.00,Acu-Link.com,2013-07-24 10:19:00,
2013-07-24 03:34:00,59.9,59.3,29.82,WSW,247,2.7,-999.0,98,-99.99,,,0.00,Acu-Link.com,2013-07-24 10:34:00,
2013-07-24 03:49:00,59.9,59.3,29.82,SSW,202,1.1,-999.0,98,-99.99,,,0.00,Acu-Link.com,2013-07-24 10:49:00,
2013-07-24 04:04:00,59.7,59.1,29.82,SSW,202,0.0,-999.0,98,-99.99,,,0.00,Acu-Link.com,2013-07-24 11:04:00,
2013-07-24 04:19:00,59.5,58.9,29.82,SSW,202,1.7,-999.0,98,-99.99,,,0.00,Acu-Link.com,2013-07-24 11:19:00,
2013-07-24 04:34:00,59.5,58.9,29.81,SE,135,0.0,-999.0,98,-99.99,,,0.00,Acu-Link.com,2013-07-24 11:34:00,
2013-07-24 04:49:00,59.5,58.9,29.81,ESE,112,0.0,-999.0,98,-99.99,,,0.00,Acu-Link.com,2013-07-24 11:49:00,
2013-07-24 05:04:00,59.5,58.9,29.82,ESE,112,0.0,-999.0,98,-99.99,,,0.00,Acu-Link.com,2013-07-24 12:04:00,
2013-07-24 05:20:00,60.1,59.5,29.82,SSE,157,0.0,-999.0,98,-99.99,,,0.00,Acu-Link.com,2013-07-24 12:20:00,
2013-07-24 05:35:00,60.3,59.7,29.82,West,270,0.0,-999.0,98,-99.99,,,0.00,Acu-Link.com,2013-07-24 12:35:00,
2013-07-24 05:50:00,60.6,60.0,29.82,West,270,0.0,-999.0,98,-99.99,,,0.00,Acu-Link.com,2013-07-24 12:50:00,
2013-07-24 06:05:00,60.6,60.0,29.82,WNW,292,0.0,-999.0,98,-99.99,,,0.00,Acu-Link.com,2013-07-24 13:05:00,
2013-07-24 06:20:00,60.6,60.0,29.83,SSE,157,0.0,-999.0,98,-99.99,,,0.00,Acu-Link.com,2013-07-24 13:20:00,
2013-07-24 06:35:00,60.6,60.0,29.83,ESE,112,0.0,-999.0,98,-99.99,,,0.00,Acu-Link.com,2013-07-24 13:35:00,
2013-07-24 06:50:00,61.0,60.4,29.83,ENE,67,0.0,-999.0,98,-99.99,,,0.00,Acu-Link.com,2013-07-24 13:50:00,
2013-07-24 07:05:00,61.3,60.7,29.82,East,90,0.0,-999.0,98,-99.99,,,0.00,Acu-Link.com,2013-07-24 14:05:00,
2013-07-24 07:20:00,61.9,61.3,29.83,ESE,112,0.0,-999.0,98,-99.99,,,0.00,Acu-Link.com,2013-07-24 14:20:00,
2013-07-24 07:35:00,63.0,62.4,29.82,North,0,1.7,-999.0,98,-99.99,,,0.00,Acu-Link.com,2013-07-24 14:35:00,
2013-07-24 07:51:00,63.7,63.1,29.83,NNW,337,0.0,-999.0,98,-99.99,,,0.00,Acu-Link.com,2013-07-24 14:51:00,
2013-07-24 08:06:00,64.8,64.2,29.82,WSW,247,1.7,-999.0,98,-99.99,,,0.00,Acu-Link.com,2013-07-24 15:06:00,
2013-07-24 08:21:00,66.7,66.1,29.83,SSE,157,1.7,-999.0,98,-99.99,,,0.00,Acu-Link.com,2013-07-24 15:21:00,
2013-07-24 08:36:00,69.6,69.0,29.83,SE,135,1.7,-999.0,98,-99.99,,,0.00,Acu-Link.com,2013-07-24 15:36:00,
2013-07-24 08:51:00,73.8,73.2,29.83,SW,225,2.2,-999.0,98,-99.99,,,0.00,Acu-Link.com,2013-07-24 15:51:00,
2013-07-24 09:06:00,76.3,75.7,29.83,ESE,112,1.1,-999.0,98,-99.99,,,0.00,Acu-Link.com,2013-07-24 16:06:00,
2013-07-24 09:21:00,75.2,74.6,29.83,NNW,337,2.7,-999.0,98,-99.99,,,0.00,Acu-Link.com,2013-07-24 16:21:00,
2013-07-24 09:36:00,76.1,75.5,29.83,South,180,3.7,-999.0,98,-99.99,,,0.00,Acu-Link.com,2013-07-24 16:36:00,
2013-07-24 09:52:00,76.8,76.2,29.83,East,90,2.7,-999.0,98,-99.99,,,0.00,Acu-Link.com,2013-07-24 16:52:00,
2013-07-24 10:07:00,77.5,76.9,29.83,SSW,202,2.2,-999.0,98,-99.99,,,0.00,Acu-Link.com,2013-07-24 17:07:00,
2013-07-24 10:22:00,78.4,77.8,29.84,North,0,3.7,-999.0,98,-99.99,,,0.00,Acu-Link.com,2013-07-24 17:22:00,
2013-07-24 10:37:00,80.1,79.5,29.83,ESE,112,1.1,-999.0,98,-99.99,,,0.00,Acu-Link.com,2013-07-24 17:37:00,
2013-07-24 10:52:00,81.7,81.1,29.83,East,90,2.7,-999.0,98,-99.99,,,0.00,Acu-Link.com,2013-07-24 17:52:00,
2013-07-24 11:07:00,82.9,82.3,29.82,NW,315,3.7,-999.0,98,-99.99,,,0.00,Acu-Link.com,2013-07-24 18:07:00,
2013-07-24 11:22:00,84.7,80.0,29.82,East,90,1.7,-999.0,86,-99.99,,,0.00,Acu-Link.com,2013-07-24 18:22:00,
2013-07-24 11:38:00,85.6,84.0,29.82,ESE,112,2.7,-999.0,95,-99.99,,,0.00,Acu-Link.com,2013-07-24 18:38:00,
2013-07-24 11:53:00,86.2,45.1,29.81,SSW,202,2.7,-999.0,24,-99.99,,,0.00,Acu-Link.com,2013-07-24 18:53:00,
2013-07-24 12:08:00,86.5,84.6,29.83,SW,225,3.2,-999.0,94,-99.99,,,0.00,Acu-Link.com,2013-07-24 19:08:00,
2013-07-24 12:23:00,85.8,-12.1,29.81,ESE,112,2.2,-999.0,2,-99.99,,,0.00,Acu-Link.com,2013-07-24 19:23:00,
2013-07-24 12:38:00,86.0,60.9,29.81,West,270,4.7,-999.0,43,-99.99,,,0.00,Acu-Link.com,2013-07-24 19:38:00,
2013-07-24 12:53:00,84.6,55.4,29.81,West,270,4.7,-999.0,37,-99.99,,,0.00,Acu-Link.com,2013-07-24 19:53:00,
2013-07-24 13:08:00,86.7,-24.9,29.80,East,90,3.7,-999.0,1,-99.99,,,0.00,Acu-Link.com,2013-07-24 20:08:00,
2013-07-24 13:23:00,85.5,-25.6,29.81,West,270,5.3,-999.0,1,-99.99,,,0.00,Acu-Link.com,2013-07-24 20:23:00,
2013-07-24 13:38:00,83.3,-26.9,29.80,West,270,3.7,-999.0,1,-99.99,,,0.00,Acu-Link.com,2013-07-24 20:38:00,
2013-07-24 13:54:00,84.0,63.9,29.80,SW,225,5.3,-999.0,51,-99.99,,,0.00,Acu-Link.com,2013-07-24 20:54:00,
2013-07-24 14:09:00,83.8,-13.3,29.79,NW,315,3.7,-999.0,2,-99.99,,,0.00,Acu-Link.com,2013-07-24 21:09:00,
2013-07-24 14:24:00,85.1,6.6,29.78,WSW,247,4.7,-999.0,5,-99.99,,,0.00,Acu-Link.com,2013-07-24 21:24:00,
2013-07-24 14:39:00,84.0,58.4,29.78,SE,135,5.8,-999.0,42,-99.99,,,0.00,Acu-Link.com,2013-07-24 21:39:00,
2013-07-24 14:54:00,83.1,74.3,29.78,West,270,4.2,-999.0,75,-99.99,,,0.00,Acu-Link.com,2013-07-24 21:54:00,
2013-07-24 15:09:00,78.1,77.5,29.78,NNE,22,5.3,-999.0,98,-99.99,,,0.00,Acu-Link.com,2013-07-24 22:09:00,
2013-07-24 15:24:00,78.6,76.7,29.77,WSW,247,5.8,-999.0,94,-99.99,,,0.00,Acu-Link.com,2013-07-24 22:24:00,
2013-07-24 15:39:00,77.7,68.7,29.77,SSW,202,6.3,-999.0,74,-99.99,,,0.00,Acu-Link.com,2013-07-24 22:39:00,
2013-07-24 15:54:00,79.0,78.4,29.78,WSW,247,4.7,-999.0,98,-99.99,,,0.00,Acu-Link.com,2013-07-24 22:54:00,
2013-07-24 16:10:00,80.8,79.2,29.76,West,270,6.3,-999.0,95,-99.99,,,0.00,Acu-Link.com,2013-07-24 23:10:00,
2013-07-24 16:25:00,79.9,78.0,29.76,SW,225,4.2,-999.0,94,-99.99,,,0.00,Acu-Link.com,2013-07-24 23:25:00,
2013-07-24 16:40:00,82.6,76.5,29.77,SW,225,5.3,-999.0,82,-99.99,,,0.00,Acu-Link.com,2013-07-24 23:40:00,
2013-07-24 16:55:00,79.0,70.8,29.76,South,180,5.3,-999.0,76,-99.99,,,0.00,Acu-Link.com,2013-07-24 23:55:00,
2013-07-24 17:10:00,78.4,69.0,29.75,South,180,5.3,-999.0,73,-99.99,,,0.00,Acu-Link.com,2013-07-25 00:10:00,
2013-07-24 17:25:00,79.9,78.3,29.76,West,270,3.7,-999.0,95,-99.99,,,0.00,Acu-Link.com,2013-07-25 00:25:00,
2013-07-24 17:40:00,77.4,76.8,29.75,West,270,3.2,-999.0,98,-99.99,,,0.00,Acu-Link.com,2013-07-25 00:40:00,
2013-07-24 17:55:00,79.3,77.7,29.75,NNE,22,2.7,-999.0,95,-99.99,,,0.00,Acu-Link.com,2013-07-25 00:55:00,
2013-07-24 18:11:00,79.2,78.6,29.74,SW,225,4.7,-999.0,98,-99.99,,,0.00,Acu-Link.com,2013-07-25 01:11:00,
2013-07-24 18:41:00,74.3,73.7,29.75,SSW,202,1.7,-999.0,98,-99.99,,,0.00,Acu-Link.com,2013-07-25 01:41:00,
2013-07-24 18:56:00,73.8,52.9,29.75,WNW,292,3.2,-999.0,48,-99.99,,,0.00,Acu-Link.com,2013-07-25 01:56:00,
2013-07-24 19:11:00,71.4,70.8,29.75,SW,225,0.0,-999.0,98,-99.99,,,0.00,Acu-Link.com,2013-07-25 02:11:00,
2013-07-24 19:27:00,70.2,61.5,29.75,ENE,67,0.0,-999.0,74,-99.99,,,0.00,Acu-Link.com,2013-07-25 02:27:00,
2013-07-24 19:42:00,68.5,67.0,29.75,SSW,202,0.0,-999.0,95,-99.99,,,0.00,Acu-Link.com,2013-07-25 02:42:00,
2013-07-24 19:57:00,67.6,67.0,29.76,SSW,202,1.7,-999.0,98,-99.99,,,0.00,Acu-Link.com,2013-07-25 02:57:00,
2013-07-24 20:27:00,64.9,64.3,29.75,West,270,2.7,-999.0,98,-99.99,,,0.00,Acu-Link.com,2013-07-25 03:27:00,
2013-07-24 20:42:00,64.4,63.8,29.77,WSW,247,1.1,-999.0,98,-99.99,,,0.00,Acu-Link.com,2013-07-25 03:42:00,
2013-07-24 21:12:00,63.0,62.4,29.78,West,270,1.7,-999.0,98,-99.99,,,0.00,Acu-Link.com,2013-07-25 04:12:00,
2013-07-24 21:27:00,62.8,62.2,29.77,West,270,0.0,-999.0,98,-99.99,,,0.00,Acu-Link.com,2013-07-25 04:27:00,
2013-07-24 21:43:00,62.4,61.8,29.78,South,180,0.0,-999.0,98,-99.99,,,0.00,Acu-Link.com,2013-07-25 04:43:00,
2013-07-24 21:58:00,61.9,61.3,29.78,SSE,157,0.0,-999.0,98,-99.99,,,0.00,Acu-Link.com,2013-07-25 04:58:00,
2013-07-24 22:13:00,61.7,61.1,29.79,North,0,0.0,-999.0,98,-99.99,,,0.00,Acu-Link.com,2013-07-25 05:13:00,
2013-07-24 22:28:00,61.3,60.7,29.79,West,270,0.0,-999.0,98,-99.99,,,0.00,Acu-Link.com,2013-07-25 05:28:00,
2013-07-24 22:43:00,60.8,60.2,29.79,SW,225,0.0,-999.0,98,-99.99,,,0.00,Acu-Link.com,2013-07-25 05:43:00,
2013-07-24 22:58:00,60.8,60.2,29.79,SW,225,0.0,-999.0,98,-99.99,,,0.00,Acu-Link.com,2013-07-25 05:58:00,
2013-07-24 23:13:00,60.8,60.2,29.79,SW,225,0.0,-999.0,98,-99.99,,,0.00,Acu-Link.com,2013-07-25 06:13:00,
2013-07-24 23:28:00,60.4,59.8,29.80,WSW,247,0.0,-999.0,98,-99.99,,,0.00,Acu-Link.com,2013-07-25 06:28:00,
2013-07-24 23:43:00,60.4,59.8,29.79,WSW,247,0.0,-999.0,98,-99.99,,,0.00,Acu-Link.com,2013-07-25 06:43:00,
2013-07-24 23:59:00,60.1,59.5,29.80,WSW,247,0.0,-999.0,98,-99.99,,,0.00,Acu-Link.com,2013-07-25 06:59:00,